User: anonymous   Login
Location: State Camp
(41.2367°N, 77.7828°W)
Time: 07:09:00
(UTC-04:00)
Language:

Cosmos 1674 Rocket - Orbit

View from above orbital plane
View from above orbital plane
View from above satellite
View from above satellite

Ground track
Ground track

The orbit data is extracted from the following two-line orbital elements,

1 15945U 85069B   17083.86426757 +.00000094 +00000-0 +84023-5 0  9991
2 15945 082.5294 211.9765 0019344 196.2174 163.8425 14.83914004687440
Epoch (UTC): 24 March 2017 20:44:32
Eccentricity: 0.0019344
inclination: 82.5294°
perigee height: 603 km
apogee height: 630 km
right ascension of ascending node: 211.9765°
argument of perigee: 196.2174°
revolutions per day: 14.83914004
mean anomaly at epoch: 163.8425°
orbit number at epoch: 68744

The dashed part of the orbit path shows where the satellite is in the earth's shadow,  

DLR